User: anonymous   Login
Location: Unspecified
(0.0000°N, 0.0000°E)
Time: 06:52:53
(UTC+02:00)
Language:

Meteor PRIRODA - Orbit

View from above orbital plane
View from above orbital plane
View from above satellite
View from above satellite

Ground track
Ground track

The orbit data is extracted from the following two-line orbital elements,

1 12585U 81065A   15209.45519551  .00001591  00000-0  81566-4 0  9999
2 12585 097.3523 192.3108 0014098 293.8842 182.2412 15.17902633857540
Epoch (UTC): 28 July 2015 10:55:28
Eccentricity: 0.0014098
inclination: 97.3523°
perigee height: 502 km
apogee height: 522 km
right ascension of ascending node: 192.3108°
argument of perigee: 293.8842°
revolutions per day: 15.17902633
mean anomaly at epoch: 182.2412°
orbit number at epoch: 85754

The dashed part of the orbit path shows where the satellite is in the earth's shadow,  

DLR